When you browse on this site, cookies collect data to enhance your experience and personalize the content and advertising you see.
Visit our Privacy Policy to learn more. By continuing to use the site, you agree to this use of cookies and data.
  • In Portugal
  • List of Countries
  • For 7 days
  • Water Temperature
  • Weather Map
  • Weather Widgets
  • user-avatar
    Login

    Hourly Weather Konstantyna

    Today, 26 May, Tuesday

    Time Temperature Precipitation Wind Pressure Humidity
    00:00 +15°C° 0 mm 0 mps 714 mmHg 71%
    01:00 +15°C° 0 mm 0 mps 714 mmHg 71%
    02:00 +14°C° 0 mm 0 mps 714 mmHg 71%
    03:00 +14°C° 0 mm 0 mps 714 mmHg 70%
    04:00 +16°C° 0 mm 0 mps 714 mmHg 66%
    05:00 +17°C° 0 mm 0 mps 714 mmHg 61%
    06:00 +18°C° 0 mm 0 mps 715 mmHg 56%
    07:00 +20°C° 0 mm 0 mps 715 mmHg 49%
    08:00 +24°C° 0 mm 1 mps 715 mmHg 42%
    09:00 +26°C° 0 mm 1 mps 716 mmHg 35%
    10:00 +27°C° 0 mm 2 mps 716 mmHg 34%
    11:00 +28°C° 0 mm 3 mps 716 mmHg 32%
    12:00 +29°C° 0 mm 3 mps 716 mmHg 31%
    13:00 +29°C° 0 mm 4 mps 715 mmHg 33%
    14:00 +29°C° 0 mm 4 mps 715 mmHg 36%
    15:00 +28°C° 0 mm 4 mps 714 mmHg 38%
    16:00 +27°C° 0 mm 4 mps 714 mmHg 44%
    17:00 +25°C° 0 mm 3 mps 714 mmHg 50%
    18:00 +24°C° 0 mm 3 mps 713 mmHg 56%
    19:00 +21°C° 0 mm 2 mps 713 mmHg 61%
    20:00 +19°C° 0 mm 2 mps 714 mmHg 67%
    21:00 +18°C° 0 mm 1 mps 714 mmHg 72%
    22:00 +18°C° 0 mm 1 mps 714 mmHg 72%
    23:00 +16°C° 0 mm 0 mps 713 mmHg 72%

    Tomorrow, 27 May, Wednesday

    Time Temperature Precipitation Wind Pressure Humidity
    00:00 +15°C° 0 mm 0 mps 713 mmHg 73%
    01:00 +16°C° 0 mm 0 mps 713 mmHg 71%
    02:00 +18°C° 0 mm 1 mps 713 mmHg 69%
    03:00 +18°C° 0 mm 1 mps 713 mmHg 67%
    04:00 +19°C° 0 mm 1 mps 713 mmHg 65%
    05:00 +19°C° 0 mm 1 mps 713 mmHg 63%
    06:00 +20°C° 0 mm 1 mps 713 mmHg 62%
    07:00 +22°C° 0 mm 1 mps 714 mmHg 56%
    08:00 +23°C° 0 mm 1 mps 714 mmHg 50%
    09:00 +25°C° 0 mm 2 mps 715 mmHg 44%
    10:00 +26°C° 0 mm 2 mps 715 mmHg 41%
    11:00 +27°C° 0 mm 3 mps 715 mmHg 39%
    12:00 +29°C° 0 mm 3 mps 715 mmHg 37%
    13:00 +28°C° 0 mm 4 mps 715 mmHg 39%
    14:00 +28°C° 0 mm 5 mps 714 mmHg 40%
    15:00 +28°C° 0 mm 5 mps 714 mmHg 42%
    16:00 +26°C° 0.1 mm 5 mps 714 mmHg 46%
    17:00 +25°C° 0.1 mm 4 mps 714 mmHg 50%
    18:00 +22°C° 0.1 mm 3 mps 714 mmHg 53%
    19:00 +20°C° 0 mm 3 mps 714 mmHg 56%
    20:00 +19°C° 0 mm 2 mps 714 mmHg 59%
    21:00 +18°C° 0 mm 1 mps 715 mmHg 61%
    22:00 +18°C° 0 mm 1 mps 714 mmHg 61%
    23:00 +16°C° 0 mm 1 mps 714 mmHg 61%

    Day after tomorrow, 28 May, Thursday

    Time Temperature Precipitation Wind Pressure Humidity
    00:00 +16°C° 0 mm 1 mps 714 mmHg 61%
    01:00 +16°C° 0 mm 1 mps 714 mmHg 61%
    02:00 +16°C° 0 mm 1 mps 714 mmHg 60%
    03:00 +18°C° 0 mm 1 mps 714 mmHg 59%
    04:00 +18°C° 0 mm 1 mps 714 mmHg 59%
    05:00 +19°C° 0 mm 1 mps 714 mmHg 58%
    06:00 +19°C° 0 mm 1 mps 714 mmHg 57%
    07:00 +20°C° 0 mm 1 mps 715 mmHg 54%
    08:00 +22°C° 0 mm 1 mps 715 mmHg 51%
    09:00 +23°C° 0 mm 1 mps 715 mmHg 48%
    10:00 +25°C° 0 mm 2 mps 715 mmHg 45%
    11:00 +26°C° 0 mm 2 mps 715 mmHg 42%
    12:00 +28°C° 0 mm 2 mps 715 mmHg 38%
    13:00 +28°C° 0 mm 2 mps 714 mmHg 40%
    14:00 +28°C° 0 mm 3 mps 714 mmHg 41%
    15:00 +27°C° 0 mm 3 mps 714 mmHg 42%
    16:00 +26°C° 0.2 mm 3 mps 713 mmHg 49%
    17:00 +25°C° 0.2 mm 2 mps 713 mmHg 55%
    18:00 +23°C° 0.2 mm 2 mps 712 mmHg 61%
    19:00 +22°C° 0.1 mm 1 mps 712 mmHg 66%
    20:00 +20°C° 0.1 mm 1 mps 712 mmHg 71%
    21:00 +19°C° 0.1 mm 1 mps 712 mmHg 76%
    22:00 +19°C° 0 mm 1 mps 712 mmHg 75%
    23:00 +19°C° 0 mm 1 mps 712 mmHg 74%

    29 May, Friday

    Time Temperature Precipitation Wind Pressure Humidity
    00:00 +19°C° 0 mm 1 mps 712 mmHg 73%
    01:00 +19°C° 0 mm 1 mps 711 mmHg 71%
    02:00 +18°C° 0 mm 2 mps 711 mmHg 69%
    03:00 +18°C° 0 mm 2 mps 711 mmHg 67%
    04:00 +19°C° 0.4 mm 2 mps 711 mmHg 65%
    05:00 +20°C° 0.4 mm 2 mps 711 mmHg 64%
    06:00 +20°C° 0.4 mm 2 mps 711 mmHg 62%
    07:00 +22°C° 0 mm 3 mps 712 mmHg 55%
    08:00 +25°C° 0 mm 4 mps 712 mmHg 49%
    09:00 +27°C° 0 mm 5 mps 712 mmHg 42%
    10:00 +28°C° 0 mm 4 mps 712 mmHg 40%
    11:00 +28°C° 0 mm 4 mps 712 mmHg 38%
    12:00 +29°C° 0 mm 4 mps 711 mmHg 37%
    13:00 +28°C° 0.4 mm 4 mps 711 mmHg 43%
    14:00 +27°C° 0.4 mm 3 mps 710 mmHg 49%
    15:00 +25°C° 0.4 mm 3 mps 710 mmHg 55%
    16:00 +24°C° 0.5 mm 3 mps 709 mmHg 60%
    17:00 +23°C° 0.5 mm 2 mps 709 mmHg 64%
    18:00 +23°C° 0.5 mm 2 mps 709 mmHg 69%
    19:00 +21°C° 0 mm 1 mps 709 mmHg 73%
    20:00 +20°C° 0 mm 1 mps 709 mmHg 77%
    21:00 +19°C° 0 mm 1 mps 709 mmHg 81%
    22:00 +19°C° 0 mm 1 mps 709 mmHg 81%
    23:00 +19°C° 0 mm 1 mps 708 mmHg 81%

    30 May, Saturday

    Time Temperature Precipitation Wind Pressure Humidity
    00:00 +18°C° 0 mm 1 mps 708 mmHg 81%
    01:00 +18°C° 0 mm 1 mps 708 mmHg 81%
    02:00 +18°C° 0 mm 1 mps 708 mmHg 80%
    03:00 +18°C° 0 mm 1 mps 708 mmHg 80%
    04:00 +19°C° 0 mm 1 mps 708 mmHg 75%
    05:00 +20°C° 0 mm 1 mps 708 mmHg 69%
    06:00 +21°C° 0 mm 1 mps 708 mmHg 64%
    07:00 +23°C° 0.1 mm 1 mps 709 mmHg 60%
    08:00 +24°C° 0.1 mm 2 mps 709 mmHg 55%
    09:00 +26°C° 0.1 mm 3 mps 709 mmHg 51%
    10:00 +26°C° 0.3 mm 3 mps 709 mmHg 50%
    11:00 +27°C° 0.3 mm 3 mps 709 mmHg 49%
    12:00 +28°C° 0.3 mm 4 mps 709 mmHg 48%
    13:00 +27°C° 0.7 mm 4 mps 709 mmHg 51%
    14:00 +26°C° 0.7 mm 5 mps 709 mmHg 54%
    15:00 +26°C° 0.7 mm 5 mps 709 mmHg 57%
    16:00 +23°C° 0.1 mm 5 mps 708 mmHg 62%
    17:00 +22°C° 0.1 mm 4 mps 708 mmHg 67%
    18:00 +20°C° 0.1 mm 4 mps 708 mmHg 73%
    19:00 +19°C° 0 mm 3 mps 709 mmHg 78%
    20:00 +18°C° 0 mm 2 mps 709 mmHg 84%
    21:00 +16°C° 0 mm 1 mps 709 mmHg 90%
    22:00 +16°C° 0 mm 1 mps 709 mmHg 91%
    23:00 +14°C° 0 mm 0 mps 709 mmHg 91%

    31 May, Sunday

    Time Temperature Precipitation Wind Pressure Humidity
    00:00 +14°C° 0 mm 0 mps 709 mmHg 92%
    01:00 +13°C° 0 mm 0 mps 709 mmHg 91%
    02:00 +13°C° 0 mm 0 mps 709 mmHg 91%
    03:00 +12°C° 0 mm 0 mps 709 mmHg 90%
    04:00 +13°C° 0 mm 0 mps 709 mmHg 85%
    05:00 +15°C° 0 mm 1 mps 709 mmHg 80%
    06:00 +16°C° 0 mm 1 mps 710 mmHg 75%
    07:00 +19°C° 0 mm 1 mps 710 mmHg 64%
    08:00 +21°C° 0 mm 1 mps 710 mmHg 53%
    09:00 +23°C° 0 mm 1 mps 711 mmHg 43%
    10:00 +25°C° 0 mm 1 mps 711 mmHg 38%
    11:00 +26°C° 0 mm 1 mps 711 mmHg 33%
    12:00 +28°C° 0 mm 1 mps 711 mmHg 28%
    13:00 +28°C° 0 mm 1 mps 711 mmHg 29%
    14:00 +28°C° 0 mm 2 mps 710 mmHg 29%
    15:00 +28°C° 0 mm 2 mps 710 mmHg 30%
    16:00 +27°C° 0 mm 3 mps 710 mmHg 39%
    17:00 +26°C° 0 mm 3 mps 709 mmHg 49%
    18:00 +24°C° 0 mm 3 mps 709 mmHg 58%
    19:00 +23°C° 0 mm 2 mps 709 mmHg 66%
    20:00 +20°C° 0 mm 2 mps 709 mmHg 73%
    21:00 +20°C° 0 mm 1 mps 709 mmHg 81%
    22:00 +19°C° 0 mm 1 mps 708 mmHg 80%
    23:00 +19°C° 0 mm 1 mps 708 mmHg 78%
    Show more